This is the latest recevied weather packets stored in our database for station/object KGRR-WX. If no packets are shown the sender has not sent any weather packets the latest 10 day(s).
| Time | Temp. | Humidity | Pressure | Rain* | Wind** | Luminosity | Snow |
|---|---|---|---|---|---|---|---|
| 1788136209 | 73° F | 77% | 740 mmHg | 0 in | - | - | - |
| 1788135309 | 74° F | 77% | 740 mmHg | 0 in | - | - | - |
| 1788134410 | 74° F | 77% | 740 mmHg | 0 in | - | - | - |
| 1788133509 | 75° F | 71% | 740.1 mmHg | 0 in | - | - | - |
| 1788132609 | 76° F | 68% | 740 mmHg | 0 in | - | - | - |
| 1788131706 | 77° F | 68% | 740 mmHg | 0 in | - | - | - |
| 1788130809 | 77° F | 68% | 740 mmHg | 0 in | - | - | - |
| 1788129909 | 78° F | 61% | 740.5 mmHg | 0 in | - | - | - |
| 1788129010 | 74° F | 63% | 740.6 mmHg | 0 in | - | - | - |
| 1788128108 | 73° F | 63% | 740.6 mmHg | 0 in | - | - | - |
| 1788127210 | 78° F | 63% | 740.6 mmHg | 0 in | - | - | - |
| 1788126309 | 80° F | 65% | 740.4 mmHg | 0 in | - | - | - |
| 1788125409 | 81° F | 62% | 740.6 mmHg | 0 in | - | - | - |
| 1788124508 | 80° F | 62% | 740.7 mmHg | 0 in | - | - | - |
| 1788123606 | 81° F | 62% | 740.7 mmHg | 0 in | - | - | - |
| 1788122708 | 78° F | 63% | 740.8 mmHg | 0 in | - | - | - |
| 1788121808 | 82° F | 67% | 740.3 mmHg | 0 in | - | - | - |
| 1788120908 | 81° F | 67% | 740.3 mmHg | 0 in | - | - | - |
| 1788120008 | 81° F | 68% | 740.4 mmHg | 0 in | - | - | - |
| 1788119107 | 81° F | 70% | 740.4 mmHg | 0 in | - | - | - |
| 1788118207 | 80° F | 70% | 740.4 mmHg | 0 in | - | - | - |
| 1788117307 | 79° F | 68% | 740.3 mmHg | 0 in | - | - | - |
| 1788116408 | 78° F | 68% | 740.3 mmHg | 0 in | - | - | - |
| 1788115507 | 78° F | 74% | 740.8 mmHg | 0 in | - | - | - |
| 1788114605 | 77° F | 74% | 740.8 mmHg | 0 in | - | - | - |
* Rain latest hour (hover to see other rain measurements)
** Current wind speed in m/s (hover to see current wind gust speed)